Dewpoint
56 56 56 56 55 55 55 55 54 52 50 49 49 48 46 43 44 43 42 39 38 39
58 58 59 59 58 57 58 54 52 51 50 49 48 45 44 44 43 39 41 41 41 39
57 60 59 59 58 58 56 53 51 51 50 48 44 45 44 42 41 40 41 41 39 40
58 58 59 58 58 57 55 54 52 51 49 46 46 43 41 41 41 40 41 40 40 39
58 58 58 58 57 57 56 53 51 48 47 45 43 43 41 40 40 39 39 40 40 40
57 56 56 54 53 52 51 49 47 46 44 44 43 41 40 41 40 41 41 40 40 40
54 53 53 52 50 48 46 43 43 43 42 41 40 40 40 40 41 41 41 41 40 39
51 50 49 48 47 46 43 42 41 41 41 41 41 41 41 41 41 40 40 40 40 40
48 47 45 44 44 43 42 41 40 40 40 40 39 40 40 40 40 39 39 38 39 37
42 42 40 39 39 39 39 40 40 40 41 41 41 40 40 39 39 36 34 31 30 29
40 39 39 39 40 40 40 40 41 40 40 40 38 39 39 36 31 29 28 28 28 27
39 39 39 39 39 40 40 39 39 38 36 34 33 36 31 30 29 29 28 27 27 26
39 38 39 40 39 38 38 34 31 29 29 29 28 30 31 30 29 29 29 29 28 28
39 39 38 36 35 32 30 28 30 29 29 28 28 30 30 30 28 29 28 28 29 30
Wind_Speed
27 21 20 16 14 17 18 17 13 17 17 17 15 14 7 9 8 6 5 4 6 7
22 21 16 17 15 16 11 10 14 17 17 16 15 12 12 9 10 7 6 6 3 3
21 17 18 16 16 9 9 11 15 17 16 15 14 14 14 12 10 9 7 4 1 7
16 16 14 14 11 10 12 15 15 14 13 12 13 14 10 10 11 9 8 6 10 13
15 12 12 9 9 9 11 7 9 11 12 8 13 13 12 11 9 11 10 10 11 15
12 9 8 8 8 7 8 7 7 9 11 14 13 13 12 11 10 10 10 11 16 15
11 9 8 8 8 9 9 11 11 12 13 14 14 13 11 12 13 12 13 13 13 15
11 11 11 11 12 12 12 12 12 13 12 12 12 13 13 11 10 9 10 10 15 20
13 13 13 13 12 13 12 13 13 13 13 11 7 7 7 4 5 8 13 16 18 21
15 15 14 14 14 14 12 11 11 10 6 5 2 5 7 8 10 12 14 16 17 19
16 16 15 14 13 13 11 8 5 2 2 3 5 11 9 6 9 13 16 18 19 21
16 16 14 13 11 8 6 2 3 3 4 4 2 8 3 4 12 14 17 19 21 22
14 13 14 11 7 3 4 2 2 2 2 3 5 5 7 8 11 15 16 18 21 21
13 12 9 8 5 3 4 2 2 1 3 5 5 5 13 14 11 13 15 17 19 19
Wind_Direction
222 223 222 228 215 214 218 210 197 198 200 204 204 206 159 143 136 193 194 210 32 354
231 224 222 224 225 235 212 182 181 197 202 205 202 174 141 166 185 162 160 118 199 270
225 222 223 229 230 216 210 206 204 207 202 196 172 170 178 151 168 159 131 131 246 269
209 219 214 222 222 199 220 220 214 211 207 187 191 175 144 146 136 137 146 178 233 248
178 189 197 206 182 201 213 180 173 163 181 185 122 133 142 151 150 162 186 236 242 251
104 114 99 104 109 117 128 136 133 133 135 129 135 141 153 148 159 197 219 233 249 251
107 118 126 121 115 115 114 119 125 135 129 134 147 148 152 181 204 223 235 239 257 257
130 133 136 134 129 125 124 128 134 134 133 139 149 168 186 201 218 226 244 251 264 256
130 117 109 109 109 121 116 125 132 140 154 164 169 165 204 207 234 246 260 259 252 253
117 116 115 117 118 117 112 108 113 122 140 168 196 197 223 233 259 266 271 277 282 279
119 118 119 114 113 119 126 126 114 122 181 225 238 212 227 238 276 280 281 281 280 277
124 121 122 121 122 107 103 119 175 170 206 236 320 163 179 298 300 294 290 290 289 288
120 117 108 105 110 138 179 144 75 51 5 52 307 97 55 8 322 307 304 300 298 296
108 113 118 134 163 131 98 73 65 357 346 328 339 5 50 32 349 341 328 311 303 300